[[{"header":{"parameterUnit":"m.s-1","parameterCategory":1,"la1":30.2991,"la2":30.254,"lo1":-89.0895,"lo2":-89.0444,"dy":0.0017,"dx":0.0017,"nx":28,"ny":28,"refTime":"2023-11-10T03:00:00:Z","depth":0,"parameterNumber":2,"parameterNumberName":"U-component_of_WINDS"},"data":[0,0,0,0,0,0,0,0,0,0,0,0,0,0,0,0,0,0,0,0,0,0,0,0,0,0,0,0,0,0,0,0,0,0,0,0,0,0,0,0,0,0,0,0,0,0,0,0,0,0,0,0,0,0,0,0,0,0,-1.5862,-1.5865,0,-1.6102,-1.6105,-1.6108,-1.6166,-1.6164,-1.6162,-1.6161,-1.6417,-1.6425,-1.6434,0,0,0,0,0,0,0,0,0,0,0,0,0,-1.5464,-1.5471,-1.5862,-1.5865,-1.5868,-1.6102,-1.6105,-1.6109,-1.6166,-1.6164,-1.6162,-1.616,-1.6415,-1.6424,-1.6434,0,0,0,0,0,0,0,0,0,0,0,0,0,-1.5664,-1.5474,-1.5861,-1.5924,-1.5932,-1.6101,-1.6105,-1.611,-1.6166,-1.6164,-1.6161,-1.6159,-1.6411,-1.6423,-1.6436,-1.6562,0,0,-1.6474,-1.6479,0,0,0,0,0,0,0,0,-1.5653,-1.5679,-1.5912,-1.592,-1.593,-1.6101,-1.6059,-1.6262,-1.6167,-1.6078,-1.6161,-1.6158,-1.6315,-1.6335,-1.6386,-1.6574,-1.6585,-1.6475,-1.6483,-1.6488,-1.6492,0,0,0,0,0,0,0,-1.5639,-1.5669,-1.5957,-1.5916,-1.5926,-1.5945,-1.597,-1.6098,-1.6208,-1.6085,-1.609,-1.6117,-1.6319,-1.6374,-1.6392,-1.6589,-1.6475,-1.6486,-1.6494,-1.6499,-1.6899,-1.6902,0,0,0,0,0,0,-1.5613,-1.5657,-1.595,-1.5965,-1.5782,-1.5954,-1.5983,-1.6049,-1.6206,-1.6228,-1.6119,-1.6119,-1.6354,-1.6378,-1.6402,-1.6563,-1.6488,-1.65,-1.6507,-1.6896,-1.6899,-1.6903,0,0,0,0,0,0,-1.5604,-1.5638,-1.594,-1.5812,-1.5852,-1.5963,-1.6037,-1.6055,-1.6109,-1.6231,-1.6252,-1.6154,-1.6353,-1.6384,-1.6522,-1.6573,-1.6505,-1.6517,-1.6892,-1.6897,-1.6901,-1.6885,0,0,0,0,0,0,-1.5592,-1.5634,-1.568,-1.5813,-1.5858,-1.6053,-1.604,-1.6061,-1.613,-1.6132,-1.627,-1.629,-1.6353,-1.6503,-1.6535,-1.6589,-1.6527,-1.6888,-1.6894,-1.69,-1.6881,-1.6888,-1.6894,0,0,0,0,0,-1.5578,-1.5668,-1.5682,-1.5717,-1.5918,-1.6055,-1.6082,-1.6149,-1.6133,-1.6183,-1.6262,-1.6286,-1.6562,-1.6517,-1.6553,-1.6611,-1.6885,-1.6892,-1.6899,-1.6878,-1.6887,-1.6894,0,0,0,0,0,0,-1.5541,-1.5686,-1.5704,-1.5838,-1.5934,-1.6065,-1.6129,-1.6156,-1.626,-1.6258,-1.6341,-1.6372,-1.6506,-1.6573,-1.652,-1.6745,-1.6724,-1.6738,-1.6696,-1.6705,-1.6711,-1.6693,-1.6537,0,0,0,0,0,-1.5548,-1.5644,-1.5767,-1.5874,-1.5921,-1.6016,-1.6079,-1.6123,-1.6226,-1.6268,-1.6357,-1.646,-1.657,-1.6641,-1.6749,-1.6891,-1.6925,-1.695,-1.6956,-1.6961,-1.6973,-1.7058,-1.7072,-1.6926,-1.6926,-1.6926,0,0,-1.5565,-1.5656,-1.5712,-1.5869,-1.5948,-1.605,-1.605,-1.6157,-1.6235,-1.6285,-1.6421,-1.649,-1.6611,-1.6752,-1.682,-1.6813,-1.7021,-1.697,-1.6973,-1.6983,-1.7067,-1.708,-1.7093,-1.6931,-1.693,-1.6929,0,0,-1.5647,-1.5724,-1.5823,-1.5902,-1.6021,-1.6085,-1.6108,-1.6236,-1.6283,-1.642,-1.6462,-1.6558,-1.6744,-1.683,-1.6898,-1.7016,-1.7044,-1.7049,-1.7084,-1.7166,-1.7177,-1.7188,-1.7234,-1.7249,-1.7061,-1.7061,-1.7061,0,-1.5653,-1.5804,-1.5871,-1.5977,-1.6047,-1.6095,-1.6199,-1.6274,-1.6423,-1.6473,-1.6462,-1.67,-1.6785,-1.6949,-1.6978,-1.703,-1.7064,-1.7034,-1.7169,-1.7181,-1.7192,-1.7237,-1.7253,-1.7061,-1.7061,-1.7061,-1.7061,0,-1.5808,-1.5913,-1.598,-1.612,-1.6198,-1.6302,-1.6389,-1.6461,-1.6499,-1.6565,-1.6707,-1.681,-1.6941,-1.6984,-1.7022,-1.7155,-1.7148,-1.7152,-1.7133,-1.7205,-1.7248,-1.7266,-1.7061,-1.7061,-1.7061,-1.7061,0,0,-1.5873,-1.605,-1.6074,-1.614,-1.6276,-1.6361,-1.647,-1.6595,-1.6657,-1.676,-1.6856,-1.7015,-1.7021,-1.7098,-1.7147,-1.7219,-1.7311,-1.7216,-1.722,-1.7232,-1.7469,-1.7466,-1.7484,-1.733,-1.7333,-1.7336,-1.746,0,-1.5974,-1.6165,-1.623,-1.6391,-1.6492,-1.654,-1.6636,-1.6733,-1.6798,-1.6897,-1.6971,-1.7083,-1.7081,-1.7128,-1.7201,-1.7284,-1.736,-1.7276,-1.7425,-1.7429,-1.7394,-1.7506,-1.7503,-1.7615,-1.7477,-1.748,-1.7482,0,-1.6116,-1.6219,-1.6389,-1.6516,-1.656,-1.6644,-1.6767,-1.6859,-1.6972,-1.7015,-1.7102,-1.7147,-1.7268,-1.7241,-1.7412,-1.7353,-1.7419,-1.7469,-1.7476,-1.7494,-1.7461,-1.753,-1.7652,-1.7669,-1.7509,-1.7507,-1.7505,0,-1.615,-1.6331,-1.6457,-1.6512,-1.6662,-1.6721,-1.6787,-1.6897,-1.697,-1.7079,-1.7128,-1.725,-1.7318,-1.7415,-1.7494,-1.7466,-1.7659,-1.7638,-1.7703,-1.7701,-1.7742,-1.7738,-1.7878,-1.778,-1.778,-1.778,-1.7779,0,-1.6257,-1.636,-1.6474,-1.6552,-1.667,-1.6746,-1.6863,-1.6933,-1.7031,-1.7127,-1.7178,-1.7268,-1.7365,-1.747,-1.7533,-1.7667,-1.7697,-1.7739,-1.7755,-1.7736,-1.7731,-1.7781,-1.7776,-1.7784,-1.7783,-1.7782,-1.7781,0,-1.6314,-1.6394,-1.6535,-1.6666,-1.6702,-1.6784,-1.6899,-1.6979,-1.7047,-1.7168,-1.7201,-1.731,-1.7436,-1.7524,-1.7686,-1.7729,-1.7875,-1.7889,-1.7836,-1.7844,-1.7905,-1.7899,-1.8083,-1.8113,-1.7993,-1.7994,-1.7994,0,-1.6377,-1.6457,-1.6597,-1.6663,-1.6729,-1.6835,-1.6909,-1.699,-1.7066,-1.7202,-1.7267,-1.7396,-1.7503,-1.7702,-1.7799,-1.7925,-1.7944,-1.8,-1.7964,-1.7943,-1.7949,-1.7944,-1.7954,-1.8006,-1.8007,-1.8007,-1.8008,0,-1.6483,-1.6519,-1.6622,-1.6741,-1.6827,-1.6925,-1.7024,-1.7077,-1.7176,-1.726,-1.7387,-1.747,-1.7636,-1.7765,-1.79,-1.7974,-1.801,-1.8019,-1.8041,-1.8023,-1.799,-1.8012,-1.7853,-1.8014,-1.8014,-1.8013,-1.8013,-1.8013,-1.6547,-1.6622,-1.6732,-1.6847,-1.693,-1.7022,-1.7104,-1.7183,-1.7289,-1.7428,-1.747,-1.7604,-1.772,-1.7905,-1.7981,-1.8091,-1.8088,-1.8119,-1.8127,-1.8134,-1.8135,-1.797,-1.8116,-1.8116,-1.8116,-1.8116,-1.8116,0,-1.6657,-1.6731,-1.6835,-1.6971,-1.7063,-1.7085,-1.7197,-1.7274,-1.7389,-1.7493,-1.7597,-1.7747,-1.7873,-1.798,-1.8112,-1.8179,-1.82,-1.8212,-1.8209,-1.8226,-1.8129,-1.8098,-1.8194,-1.8194,-1.8193,-1.8193,-1.8193,-1.8193,-1.6725,-1.6854,-1.6904,-1.7076,-1.7151,-1.7279,-1.7342,-1.7429,-1.7513,-1.7676,-1.778,-1.7848,-1.7955,-1.8096,-1.8215,-1.8244,-1.8292,-1.83,-1.8334,-1.8241,-1.8232,-1.8224,-1.8195,-1.8309,-1.831,-1.8422,-1.8423,-1.8424]},{"header":{"parameterUnit":"m.s-1","parameterCategory":1,"la1":30.2991,"la2":30.254,"lo1":-89.0895,"lo2":-89.0444,"dy":0.0017,"dx":0.0017,"nx":28,"ny":28,"refTime":"2023-11-10T03:00:00:Z","depth":0,"parameterNumber":3,"parameterNumberName":"V-component_of_WINDS"},"data":[0,0,0,0,0,0,0,0,0,0,0,0,0,0,0,0,0,0,0,0,0,0,0,0,0,0,0,0,0,0,0,0,0,0,0,0,0,0,0,0,0,0,0,0,0,0,0,0,0,0,0,0,0,0,0,0,0,0,-5.2716,-5.2716,0,-5.2696,-5.2696,-5.2695,-5.2587,-5.2584,-5.2582,-5.2579,-5.256,-5.2562,-5.2564,0,0,0,0,0,0,0,0,0,0,0,0,0,-5.2662,-5.2664,-5.2716,-5.2716,-5.2715,-5.2696,-5.2696,-5.2695,-5.2587,-5.2584,-5.2581,-5.2578,-5.2559,-5.2561,-5.2564,0,0,0,0,0,0,0,0,0,0,0,0,0,-5.2668,-5.2664,-5.2716,-5.2659,-5.2654,-5.2696,-5.2696,-5.2695,-5.2588,-5.2584,-5.258,-5.2576,-5.2558,-5.2561,-5.2564,-5.266,0,0,-5.2573,-5.2574,0,0,0,0,0,0,0,0,-5.2668,-5.267,-5.2668,-5.2663,-5.2657,-5.264,-5.2669,-5.2683,-5.2589,-5.2613,-5.2579,-5.2575,-5.259,-5.259,-5.2595,-5.2659,-5.2658,-5.2573,-5.2575,-5.2576,-5.2577,0,0,0,0,0,0,0,-5.2668,-5.267,-5.2708,-5.2668,-5.2662,-5.2635,-5.2632,-5.2671,-5.2624,-5.2611,-5.2603,-5.2602,-5.2586,-5.2592,-5.2593,-5.2658,-5.2573,-5.2576,-5.2577,-5.2578,-5.2799,-5.2803,0,0,0,0,0,0,-5.2675,-5.2671,-5.2709,-5.2707,-5.2653,-5.2639,-5.2635,-5.2649,-5.2623,-5.2615,-5.2605,-5.2597,-5.2589,-5.259,-5.2592,-5.2702,-5.2576,-5.2579,-5.258,-5.2795,-5.28,-5.2804,0,0,0,0,0,0,-5.2674,-5.2679,-5.2709,-5.2687,-5.2689,-5.2644,-5.2661,-5.2651,-5.2657,-5.2618,-5.2609,-5.262,-5.2586,-5.2588,-5.2643,-5.27,-5.258,-5.2583,-5.279,-5.2796,-5.2802,-5.2922,0,0,0,0,0,0,-5.2673,-5.268,-5.2715,-5.2689,-5.269,-5.2761,-5.2664,-5.2653,-5.2662,-5.2651,-5.263,-5.2623,-5.2583,-5.264,-5.2646,-5.2701,-5.2585,-5.2785,-5.2793,-5.28,-5.2913,-5.2932,-5.2948,0,0,0,0,0,-5.2672,-5.2751,-5.2718,-5.2723,-5.2734,-5.2765,-5.2766,-5.2718,-5.2667,-5.2702,-5.2678,-5.2624,-5.2693,-5.2646,-5.2653,-5.271,-5.2781,-5.279,-5.2799,-5.2905,-5.2928,-5.2948,0,0,0,0,0,0,-5.2786,-5.2746,-5.2709,-5.2782,-5.2777,-5.2746,-5.2789,-5.2744,-5.2754,-5.2743,-5.2684,-5.268,-5.2744,-5.2732,-5.2682,-5.2801,-5.2727,-5.2739,-5.2806,-5.2827,-5.2844,-5.2846,-5.2587,0,0,0,0,0,-5.2819,-5.2847,-5.2811,-5.2878,-5.2878,-5.2835,-5.2846,-5.281,-5.2803,-5.2801,-5.278,-5.2776,-5.2796,-5.2811,-5.2828,-5.2911,-5.2905,-5.2953,-5.2971,-5.2985,-5.2996,-5.3038,-5.3059,-5.2835,-5.2835,-5.2834,0,0,-5.2889,-5.2871,-5.2892,-5.2901,-5.2893,-5.2923,-5.2834,-5.287,-5.2892,-5.2806,-5.2857,-5.2842,-5.2833,-5.2903,-5.2932,-5.2895,-5.3056,-5.2997,-5.3009,-5.3011,-5.305,-5.3071,-5.309,-5.2841,-5.284,-5.2839,0,0,-5.3031,-5.302,-5.3075,-5.3069,-5.3058,-5.3029,-5.3042,-5.3018,-5.3004,-5.3054,-5.2991,-5.3016,-5.3053,-5.305,-5.3053,-5.3194,-5.3144,-5.3201,-5.3292,-5.3335,-5.3352,-5.3368,-5.3418,-5.3437,-5.3212,-5.3212,-5.3212,0,-5.3119,-5.3162,-5.3109,-5.3149,-5.3155,-5.3078,-5.3133,-5.313,-5.3126,-5.3132,-5.309,-5.3135,-5.3124,-5.3191,-5.3226,-5.3231,-5.3244,-5.3203,-5.3354,-5.3369,-5.3382,-5.343,-5.3449,-5.3219,-5.3218,-5.3217,-5.3217,0,-5.327,-5.3301,-5.3347,-5.3344,-5.3355,-5.3402,-5.3357,-5.3375,-5.3338,-5.3313,-5.3365,-5.3349,-5.3361,-5.3374,-5.3339,-5.3437,-5.3414,-5.3364,-5.3289,-5.3412,-5.3455,-5.3473,-5.3229,-5.3226,-5.3224,-5.3222,0,0,-5.3483,-5.3451,-5.3468,-5.3466,-5.3449,-5.3471,-5.3516,-5.3527,-5.3543,-5.3543,-5.3579,-5.3612,-5.3565,-5.3569,-5.3532,-5.357,-5.3683,-5.3515,-5.3514,-5.3546,-5.379,-5.3827,-5.3849,-5.365,-5.3653,-5.3656,-5.379,0,-5.3619,-5.3692,-5.3646,-5.3726,-5.3754,-5.3682,-5.372,-5.3714,-5.3693,-5.3713,-5.3689,-5.3713,-5.365,-5.3652,-5.3686,-5.3662,-5.3731,-5.3651,-5.3683,-5.3684,-5.3686,-5.3872,-5.3912,-5.404,-5.3807,-5.381,-5.3812,0,-5.3787,-5.3794,-5.3877,-5.3854,-5.3864,-5.3899,-5.3906,-5.3926,-5.3918,-5.3899,-5.3904,-5.3858,-5.39,-5.3827,-5.3884,-5.3831,-5.3841,-5.3832,-5.3835,-5.3836,-5.3755,-5.3877,-5.4079,-5.4099,-5.3838,-5.3836,-5.3834,0,-5.3934,-5.3964,-5.4017,-5.4017,-5.3992,-5.4018,-5.4009,-5.3997,-5.4007,-5.4013,-5.4018,-5.403,-5.4036,-5.4047,-5.4005,-5.3956,-5.4068,-5.3991,-5.4054,-5.4055,-5.408,-5.4079,-5.4287,-5.4088,-5.4088,-5.4088,-5.4087,0,-5.409,-5.4144,-5.4082,-5.4115,-5.4173,-5.412,-5.4179,-5.4162,-5.4152,-5.418,-5.4119,-5.4148,-5.4091,-5.4114,-5.4082,-5.4134,-5.4138,-5.4124,-5.4115,-5.4129,-5.4131,-5.4135,-5.4125,-5.4093,-5.4091,-5.409,-5.409,0,-5.4264,-5.4225,-5.4278,-5.4249,-5.4243,-5.4288,-5.4263,-5.4293,-5.4267,-5.4304,-5.4309,-5.4269,-5.4292,-5.4252,-5.4271,-5.4249,-5.4322,-5.4299,-5.4325,-5.4318,-5.4383,-5.4377,-5.4599,-5.4626,-5.4411,-5.4413,-5.4415,0,-5.4366,-5.4405,-5.4381,-5.4395,-5.4389,-5.4413,-5.4423,-5.4372,-5.4385,-5.4378,-5.4409,-5.4427,-5.4439,-5.448,-5.4453,-5.4467,-5.4444,-5.4521,-5.4445,-5.4459,-5.4444,-5.4442,-5.4446,-5.4536,-5.4539,-5.4541,-5.4542,0,-5.4551,-5.453,-5.4545,-5.4555,-5.4568,-5.4573,-5.4573,-5.4589,-5.4535,-5.4553,-5.4575,-5.4585,-5.4604,-5.4623,-5.463,-5.4621,-5.4574,-5.4566,-5.4581,-5.4597,-5.461,-5.4603,-5.4367,-5.4561,-5.4559,-5.4558,-5.4557,-5.4556,-5.4691,-5.4723,-5.471,-5.473,-5.4725,-5.4727,-5.4753,-5.473,-5.4748,-5.4759,-5.4729,-5.4759,-5.475,-5.4755,-5.4751,-5.4774,-5.474,-5.4762,-5.4768,-5.4774,-5.4784,-5.4606,-5.4775,-5.4775,-5.4774,-5.4774,-5.4773,0,-5.4873,-5.4861,-5.488,-5.4882,-5.4898,-5.4851,-5.4849,-5.4866,-5.4893,-5.4888,-5.4901,-5.4928,-5.4946,-5.492,-5.4934,-5.4958,-5.4936,-5.4963,-5.4961,-5.4959,-5.4814,-5.4799,-5.498,-5.498,-5.498,-5.498,-5.498,-5.498,-5.4969,-5.502,-5.4997,-5.5045,-5.5033,-5.5062,-5.5065,-5.5067,-5.5062,-5.5094,-5.5109,-5.5092,-5.5079,-5.5091,-5.5106,-5.5098,-5.5106,-5.5141,-5.5125,-5.499,-5.497,-5.495,-5.4936,-5.5143,-5.5143,-5.5268,-5.527,-5.5271]}]]